Location: *
(48.8489°N, 2.3218°E)
Time: 19:47:33
(UTC+00:00)

Meteor 2-4 Rocket - Pass Details

Date: 23 August 2019
Orbit: 799 x 909 km, 81.2° (Epoch: 23 September)

Event Time Altitude Azimuth Distance (km) Brightness Sun altitude
Rises 19:21:37 0° 352° (N) 3,334 7.3 -5.4°
Reaches altitude 10° 19:24:08 10° 358° (N) 2,392 6.4 -5.8°
Maximum altitude 19:29:18 46° 72° (ENE) 1,069 4.0 -6.6°
Drops below altitude 10° 19:34:25 10° 145° (SE) 2,373 5.5 -7.3°
Enters shadow 19:35:52 - 150° (SSE) 2,914 6.0 -7.5°
